User: anonymous   Login
Location: Unspecified
(0.0000°N, 0.0000°E)
Time: 16:10:32
(UTC+00:00)
Language:

GRACE-FO 2 - Orbit

View from above orbital plane
View from above orbital plane
View from above satellite
View from above satellite

Ground track
Ground track

The orbit data is extracted from the following two-line orbital elements,

1 43477U 18047B   21139.15879612 +.00000024  00000-0 +98415-6 0    02
2 43477  88.9800  92.1844 0019621  64.8541  32.6698 15.24261917166358
Epoch (UTC): 19 May 2021 03:48:39
Eccentricity: 0.0019621
inclination: 88.9800°
perigee height: 479 km
apogee height: 506 km
right ascension of ascending node: 92.1844°
argument of perigee: 64.8541°
revolutions per day: 15.24261917
mean anomaly at epoch: 32.6698°
orbit number at epoch: 16635

The dashed part of the orbit path shows where the satellite is in the earth's shadow,  

DLR